Location: Hartford
(41.7640°N, 72.6860°W)
Time: 06:33:50
(UTC-04:00)

ISS - Visible Passes

Search period start: 28 June 2017 00:00
Search period end: 08 July 2017 00:00
Orbit: 401 x 408 km, 51.6° (Epoch: 28 June)

Date Brightness Start Highest point End Pass type
(mag) Time Alt. Az. Time Alt. Az. Time Alt. Az.
06 Jul -2.1 04:01:15 15° S 04:03:06 23° SE 04:05:47 10° E visible
07 Jul -1.3 03:10:58 13° SE 03:11:00 13° SE 03:12:29 10° ESE visible
07 Jul -3.7 04:43:48 10° WSW 04:47:03 75° NW 04:50:20 10° NE visible
